Volver al catálogo

STARLINK-36158

ActivoComunicacionesVLEO
NORAD 67080·PAYLOAD·🇺🇸 United States

Lanzado Dec 14, 2025 desde Vandenberg Space Force Base

Loading…

Próximos Pases (próximas 24 horas)

TLE

ActualizadoSource: CelesTrak SupGP

Época: Sep 15, 2026, 02:32 UTC

1 67080C 25298F   26258.10604167 -.00041417  00000+0 -34698-2 0  2583
2 67080  69.9993 256.6960 0004001 266.8114 123.6190 14.98361813    12

Sigue STARLINK-36158 en tiempo real con AllMySat

Download on the App Store